Weather History for Zapata, TX

Change the Weather History Date:

Monday, July 29, 2013

  Actual Average (KLRD) Record (KLRD)
Temperature  
Mean Temperature 90 °F 89 °F  
Max Temperature 104 °F 100 °F 109 °F (1999)
Min Temperature 77 °F 77 °F 66 °F (1923)
Degree Days  
Heating Degree Days 0 0  
Month to date heating degree days 0  
Since 1 June heating degree days 0  
Since 1 July heating degree days 0  
Cooling Degree Days 26 24  
Month to date cooling degree days 668  
Year to date cooling degree days 2471  
Since 1 June cooling degree days 1328  
Growing Degree Days 40 (Base 50)    
Moisture  
Dew Point 63 °F    
Average Humidity 47    
Maximum Humidity 77    
Minimum Humidity 12    
Precipitation  
Precipitation 0.00 in 0.05 in 1.10 in (1919)
Month to date precipitation 1.93  
Year to date precipitation 11.03  
Sea Level Pressure  
Sea Level Pressure 29.91 in    
Wind  
Wind Speed 12 mph (SE)    
Max Wind Speed 23 mph    
Max Gust Speed 32 mph    
Visibility 10 miles    
Events      
T = Trace of Precipitation, MM = Missing Value Source: NWS Daily Summary

Daily Weather History Graph

Daily Weather History Graph

Search for Another Location

Airport:

Trip Planner

Search our weather history database for the weather conditions in past years. The results will help you decide how hot, cold, wet, or windy it might be!

Date:

Astronomy

Jul. 29, 2013 Rise Set
Actual Time 6:59 AM CDT 8:26 PM CDT
Civil Twilight 6:34 AM CDT 8:51 PM CDT
Nautical Twilight 6:04 AM CDT 9:21 PM CDT
Astronomical Twilight 5:33 AM CDT 9:53 PM CDT
Moon 12:34 AM CDT (7/29) 1:55 PM CDT (7/29)
Length of Visible Light 14h 17m
Length of Day
13h 26m
Waning Gibbous, 50% of the Moon is Illuminated
Jul 29
Waning Gibbous
Jul 29
Last Quarter
Aug 6
New
Aug 14
First Quarter
Aug 20
Full

Hourly Weather History & Observations

Time (CDT) Temp. Heat Index Dew Point Humidity Pressure Visibility Wind Dir Wind Speed Gust Speed Precip Events Conditions
12:15 AM 84.6 °F 88.8 °F 69.8 °F 61% 29.89 in 10.0 mi SE 11.5 mph 20.7 mph N/A   Clear
12:35 AM 84.2 °F 88.4 °F 69.8 °F 62% 29.90 in 10.0 mi SE 8.1 mph 17.3 mph N/A   Clear
12:55 AM 84.0 °F 88.1 °F 69.6 °F 62% 29.90 in 10.0 mi SE 10.4 mph - N/A   Clear
1:15 AM 83.7 °F 87.5 °F 69.4 °F 62% 29.90 in 10.0 mi SE 10.4 mph 16.1 mph N/A   Clear
1:35 AM 83.3 °F 87.1 °F 69.4 °F 63% 29.90 in 10.0 mi SE 10.4 mph 17.3 mph N/A   Clear
1:55 AM 82.8 °F 86.4 °F 69.6 °F 64% 29.89 in 10.0 mi SE 11.5 mph 16.1 mph N/A   Clear
2:15 AM 82.4 °F 86.3 °F 69.8 °F 66% 29.89 in 10.0 mi SE 11.5 mph 19.6 mph N/A   Clear
2:55 AM 81.9 °F 85.4 °F 69.4 °F 66% 29.89 in 10.0 mi SE 11.5 mph - N/A   Clear
3:15 AM 81.7 °F 85.1 °F 69.3 °F 66% 29.90 in 10.0 mi SE 11.5 mph 17.3 mph N/A   Clear
3:35 AM 81.5 °F 84.8 °F 69.1 °F 66% 29.90 in 10.0 mi SE 10.4 mph 16.1 mph N/A   Clear
3:55 AM 80.8 °F 83.8 °F 68.9 °F 67% 29.90 in 10.0 mi SE 10.4 mph 16.1 mph N/A   Clear
4:15 AM 80.6 °F 83.5 °F 68.9 °F 67% 29.90 in 10.0 mi SE 6.9 mph - N/A   Clear
4:35 AM 79.7 °F - 68.9 °F 69% 29.90 in 10.0 mi SE 9.2 mph - N/A   Clear
4:55 AM 79.2 °F - 68.9 °F 71% 29.90 in 10.0 mi SE 6.9 mph - N/A   Clear
5:15 AM 78.8 °F - 68.9 °F 72% 29.90 in 10.0 mi SE 8.1 mph - N/A   Clear
5:35 AM 78.6 °F - 68.9 °F 72% 29.90 in 10.0 mi SE 8.1 mph - N/A   Clear
5:55 AM 78.1 °F - 69.1 °F 74% 29.90 in 10.0 mi SE 6.9 mph - N/A   Clear
6:15 AM 77.9 °F - 69.3 °F 75% 29.91 in 10.0 mi SE 8.1 mph - N/A   Clear
6:35 AM 77.9 °F - 69.4 °F 75% 29.92 in 10.0 mi SE 5.8 mph - N/A   Clear
6:55 AM 77.7 °F - 69.4 °F 76% 29.93 in 10.0 mi SE 4.6 mph - N/A   Clear
7:15 AM 77.5 °F - 69.8 °F 77% 29.94 in 7.0 mi SE 6.9 mph - N/A   Clear
7:35 AM 77.9 °F - 69.8 °F 76% 29.94 in 7.0 mi SE 6.9 mph - N/A   Clear
7:55 AM 79.0 °F - 69.8 °F 73% 29.94 in 7.0 mi SE 6.9 mph - N/A   Clear
9:55 AM 86.7 °F 89.6 °F 66.9 °F 52% 29.97 in 10.0 mi SE 12.7 mph - N/A   Clear
10:15 AM 88.3 °F 90.5 °F 65.5 °F 47% 29.97 in 10.0 mi SE 12.7 mph 19.6 mph N/A   Clear
10:35 AM 89.2 °F 90.9 °F 64.8 °F 44% 29.97 in 10.0 mi SE 15.0 mph 21.9 mph N/A   Clear
11:35 AM 92.7 °F 93.2 °F 61.7 °F 36% 29.96 in 10.0 mi SE 13.8 mph 20.7 mph N/A   Clear
12:35 PM 97.3 °F 96.6 °F 58.3 °F 27% 29.94 in 10.0 mi SSE 17.3 mph 24.2 mph N/A   Clear
1:15 PM 99.1 °F 97.9 °F 56.3 °F 24% 29.93 in 10.0 mi South 16.1 mph 21.9 mph N/A   Clear
1:35 PM 100.6 °F 98.6 °F 53.8 °F 21% 29.92 in 10.0 mi SE 12.7 mph 26.5 mph N/A   Clear
1:55 PM 101.8 °F - 52.5 °F 19% 29.91 in 10.0 mi South 18.4 mph 27.6 mph N/A   Clear
2:15 PM 102.4 °F - 49.3 °F 17% 29.91 in 10.0 mi SSE 13.8 mph 29.9 mph N/A   Clear
2:35 PM 103.3 °F - 46.9 °F 15% 29.90 in 10.0 mi SSE 17.3 mph 26.5 mph N/A   Clear
2:55 PM 103.3 °F - 43.9 °F 13% 29.89 in 10.0 mi SE 17.3 mph 32.2 mph N/A   Clear
3:35 PM 104.9 °F - 42.3 °F 12% 29.89 in 10.0 mi SE 18.4 mph 26.5 mph N/A   Clear
3:55 PM 104.9 °F - 43.2 °F 12% 29.89 in 10.0 mi SSE 19.6 mph 26.5 mph N/A   Clear
5:35 PM 104.5 °F - 46.9 °F 14% 29.86 in 10.0 mi SE 18.4 mph 28.8 mph N/A   Clear
5:55 PM 104.0 °F - 46.2 °F 14% 29.86 in 10.0 mi SSE 16.1 mph 25.3 mph N/A   Clear
6:15 PM 103.3 °F - 47.5 °F 15% 29.85 in 10.0 mi SE 17.3 mph 27.6 mph N/A   Clear
6:35 PM 102.9 °F - 51.1 °F 18% 29.85 in 10.0 mi SE 19.6 mph 29.9 mph N/A   Clear
6:55 PM 101.3 °F 99.2 °F 53.6 °F 20% 29.85 in 10.0 mi SE 12.7 mph 26.5 mph N/A   Clear
7:15 PM 99.5 °F 98.9 °F 57.9 °F 25% 29.86 in 7.0 mi SE 23.0 mph 32.2 mph N/A   Clear
7:35 PM 97.9 °F 97.4 °F 59.0 °F 27% 29.87 in 7.0 mi ESE 18.4 mph 29.9 mph N/A   Clear
7:55 PM 95.9 °F 95.7 °F 59.7 °F 30% 29.87 in 10.0 mi SE 17.3 mph 31.1 mph N/A   Clear
8:15 PM 94.5 °F 94.4 °F 60.8 °F 32% 29.89 in 10.0 mi SE 21.9 mph 27.6 mph N/A   Clear
8:35 PM 93.2 °F 93.7 °F 61.7 °F 35% 29.90 in 10.0 mi ESE 19.6 mph 27.6 mph N/A   Clear
8:55 PM 91.8 °F 92.6 °F 62.6 °F 38% 29.91 in 10.0 mi ESE 11.5 mph 23.0 mph N/A   Clear
9:15 PM 90.7 °F 92.1 °F 64.2 °F 41% 29.92 in 10.0 mi SE 15.0 mph 25.3 mph N/A   Clear
9:35 PM 89.6 °F 91.1 °F 64.4 °F 43% 29.94 in 10.0 mi SE 9.2 mph 21.9 mph N/A   Clear
9:55 PM 88.7 °F 90.8 °F 65.5 °F 46% 29.95 in 10.0 mi ESE 12.7 mph 18.4 mph N/A   Clear
10:15 PM 87.8 °F 90.4 °F 66.2 °F 49% 29.96 in 10.0 mi SE 15.0 mph 24.2 mph N/A   Clear
10:35 PM 86.9 °F 89.6 °F 66.6 °F 51% 29.97 in 10.0 mi SE 11.5 mph 20.7 mph N/A   Clear
10:55 PM 86.0 °F 88.8 °F 67.3 °F 53% 29.98 in 10.0 mi SE 15.0 mph 25.3 mph N/A   Clear
11:15 PM 85.1 °F 88.2 °F 68.0 °F 56% 29.99 in 10.0 mi SE 17.3 mph 21.9 mph N/A   Clear
11:35 PM 84.4 °F 88.2 °F 68.9 °F 60% 30.00 in 10.0 mi SE 11.5 mph 24.2 mph N/A   Clear
11:55 PM 83.8 °F 87.8 °F 69.4 °F 62% 30.00 in 10.0 mi SE 13.8 mph 23.0 mph N/A   Clear